TimePST,TemperatureF,Dew PointF,Humidity,Sea Level PressureIn,VisibilityMPH,Wind Direction,Wind SpeedMPH,Gust SpeedMPH,PrecipitationIn,Events,Conditions,WindDirDegrees,DateUTC
12:15 AM,35.6,30.2,81,30.23,10.0,SE,16.1,23.0,N/A,,Overcast,140,2013-01-04 08:15:00
12:35 AM,35.6,30.2,81,30.23,10.0,SE,15.0,23.0,N/A,,Overcast,140,2013-01-04 08:35:00
12:55 AM,35.6,30.2,81,30.24,10.0,SE,17.3,25.3,N/A,,Overcast,140,2013-01-04 08:55:00
1:15 AM,35.6,32.0,87,30.24,10.0,SE,15.0,19.6,N/A,,Overcast,140,2013-01-04 09:15:00
1:35 AM,35.6,32.0,87,30.25,10.0,SE,16.1,21.9,N/A,,Mostly Cloudy,140,2013-01-04 09:35:00
1:55 AM,35.6,32.0,87,30.26,10.0,SSE,13.8,23.0,N/A,,Mostly Cloudy,150,2013-01-04 09:55:00
2:15 AM,35.6,30.2,81,30.27,10.0,SE,11.5,19.6,N/A,,Scattered Clouds,140,2013-01-04 10:15:00
2:55 AM,35.6,32.0,87,30.29,8.0,SE,5.8,-,N/A,,Overcast,130,2013-01-04 10:55:00
3:35 AM,35.6,32.0,87,30.30,7.0,ESE,6.9,-,N/A,,Overcast,120,2013-01-04 11:35:00
3:55 AM,35.6,32.0,87,30.29,8.0,SE,8.1,-,N/A,,Overcast,130,2013-01-04 11:55:00
4:15 AM,35.6,32.0,87,30.30,7.0,ESE,8.1,-,N/A,,Overcast,120,2013-01-04 12:15:00
4:35 AM,35.6,32.0,87,30.30,9.0,SE,9.2,-,N/A,,Overcast,140,2013-01-04 12:35:00
5:15 AM,35.6,33.8,93,30.30,9.0,SE,10.4,16.1,N/A,,Overcast,130,2013-01-04 13:15:00
5:35 AM,35.6,33.8,93,30.30,10.0,SE,9.2,-,N/A,,Overcast,140,2013-01-04 13:35:00
5:55 AM,35.6,33.8,93,30.31,10.0,SE,9.2,-,N/A,,Overcast,140,2013-01-04 13:55:00
6:15 AM,35.6,33.8,93,30.32,10.0,SE,9.2,-,N/A,,Overcast,140,2013-01-04 14:15:00
6:35 AM,37.4,33.8,87,30.32,10.0,SE,9.2,-,N/A,,Overcast,140,2013-01-04 14:35:00
6:55 AM,37.4,33.8,87,30.31,10.0,SE,10.4,17.3,N/A,,Overcast,130,2013-01-04 14:55:00
7:15 AM,37.4,33.8,87,30.32,9.0,SSE,9.2,-,N/A,,Overcast,150,2013-01-04 15:15:00
7:35 AM,37.4,33.8,87,30.32,7.0,SE,9.2,-,N/A,,Overcast,140,2013-01-04 15:35:00
7:55 AM,37.4,33.8,87,30.33,7.0,SE,10.4,-,N/A,,Overcast,140,2013-01-04 15:55:00
8:15 AM,37.4,33.8,87,30.33,5.0,SE,10.4,-,N/A,,Overcast,130,2013-01-04 16:15:00
8:35 AM,37.4,33.8,87,30.33,4.0,SE,9.2,-,N/A,,Overcast,130,2013-01-04 16:35:00
8:55 AM,37.4,33.8,87,30.35,6.0,SE,8.1,-,N/A,,Overcast,130,2013-01-04 16:55:00
9:15 AM,37.4,33.8,87,30.36,7.0,SE,9.2,-,N/A,,Overcast,140,2013-01-04 17:15:00
9:35 AM,37.4,33.8,87,30.36,9.0,SE,8.1,-,N/A,,Overcast,130,2013-01-04 17:35:00
9:55 AM,39.2,33.8,81,30.37,10.0,ESE,5.8,-,N/A,,Overcast,120,2013-01-04 17:55:00
10:15 AM,39.2,35.6,87,30.36,10.0,SSE,9.2,-,N/A,,Overcast,150,2013-01-04 18:15:00
10:35 AM,39.2,35.6,87,30.36,10.0,SE,8.1,-,N/A,,Overcast,140,2013-01-04 18:35:00
10:55 AM,39.2,35.6,87,30.34,10.0,SE,9.2,-,N/A,,Overcast,140,2013-01-04 18:55:00
11:15 AM,39.2,35.6,87,30.33,10.0,SSE,8.1,-,N/A,,Overcast,150,2013-01-04 19:15:00
11:35 AM,39.2,35.6,87,30.32,10.0,SE,5.8,-,N/A,,Overcast,140,2013-01-04 19:35:00
11:55 AM,39.2,35.6,87,30.31,9.0,SE,9.2,-,N/A,,Overcast,130,2013-01-04 19:55:00
12:15 PM,41.0,35.6,81,30.31,10.0,SE,6.9,-,N/A,,Overcast,130,2013-01-04 20:15:00
12:35 PM,41.0,35.6,81,30.30,10.0,SE,6.9,-,N/A,,Overcast,140,2013-01-04 20:35:00
12:55 PM,41.0,35.6,81,30.28,10.0,SE,9.2,-,N/A,,Overcast,140,2013-01-04 20:55:00
1:15 PM,41.0,37.4,87,30.28,10.0,SSE,6.9,-,N/A,,Overcast,150,2013-01-04 21:15:00
1:35 PM,42.8,37.4,81,30.27,10.0,ESE,8.1,-,N/A,,Overcast,120,2013-01-04 21:35:00
1:55 PM,42.8,37.4,81,30.26,10.0,SSE,6.9,-,N/A,,Mostly Cloudy,150,2013-01-04 21:55:00
2:15 PM,42.8,37.4,81,30.25,10.0,SSE,6.9,-,N/A,,Overcast,150,2013-01-04 22:15:00
2:35 PM,42.8,37.4,81,30.26,10.0,SE,6.9,-,N/A,,Overcast,140,2013-01-04 22:35:00
2:55 PM,42.8,37.4,81,30.26,10.0,SSE,6.9,-,N/A,,Overcast,150,2013-01-04 22:55:00
3:15 PM,42.8,37.4,81,30.25,10.0,SSE,5.8,-,N/A,,Overcast,160,2013-01-04 23:15:00
3:35 PM,42.8,37.4,81,30.24,9.0,South,4.6,-,N/A,,Overcast,170,2013-01-04 23:35:00
3:55 PM,41.0,37.4,87,30.24,8.0,Calm,Calm,-,N/A,,Overcast,0,2013-01-04 23:55:00
4:15 PM,41.0,37.4,87,30.23,7.0,Calm,Calm,-,N/A,,Overcast,0,2013-01-05 00:15:00
4:35 PM,41.0,37.4,87,30.23,6.0,SSE,3.5,-,N/A,,Overcast,160,2013-01-05 00:35:00
4:55 PM,41.0,37.4,87,30.23,5.0,South,3.5,-,N/A,,Overcast,170,2013-01-05 00:55:00
5:15 PM,41.0,37.4,87,30.23,5.0,SSE,3.5,-,N/A,,Overcast,150,2013-01-05 01:15:00
5:35 PM,39.2,37.4,93,30.23,5.0,SE,5.8,-,N/A,,Overcast,140,2013-01-05 01:35:00
5:55 PM,39.2,37.4,93,30.22,5.0,SSE,4.6,-,N/A,,Overcast,160,2013-01-05 01:55:00
6:15 PM,39.2,37.4,93,30.21,5.0,SSE,4.6,-,N/A,,Overcast,160,2013-01-05 02:15:00
6:35 PM,39.2,37.4,93,30.21,5.0,SSE,5.8,-,N/A,,Overcast,160,2013-01-05 02:35:00
6:55 PM,39.2,37.4,93,30.21,4.0,SSE,6.9,-,N/A,,Overcast,150,2013-01-05 02:55:00
7:15 PM,39.2,37.4,93,30.21,0.8,SSE,4.6,-,N/A,,Overcast,150,2013-01-05 03:15:00
7:35 PM,39.2,37.4,93,30.21,1.8,SE,6.9,-,N/A,,Overcast,140,2013-01-05 03:35:00
7:55 PM,39.2,37.4,93,30.20,3.0,SE,5.8,-,N/A,,Overcast,130,2013-01-05 03:55:00
8:15 PM,39.2,37.4,93,30.20,3.0,SSE,6.9,-,N/A,,Overcast,150,2013-01-05 04:15:00
8:35 PM,39.2,35.6,87,30.20,5.0,SE,5.8,-,N/A,,Overcast,140,2013-01-05 04:35:00
8:55 PM,39.2,35.6,87,30.20,5.0,SE,6.9,-,N/A,,Overcast,140,2013-01-05 04:55:00
9:15 PM,39.2,35.6,87,30.20,8.0,SE,6.9,-,N/A,,Overcast,140,2013-01-05 05:15:00
9:35 PM,39.2,35.6,87,30.20,8.0,SSE,4.6,-,N/A,,Overcast,150,2013-01-05 05:35:00
9:55 PM,39.2,33.8,81,30.20,10.0,SE,6.9,-,N/A,,Overcast,140,2013-01-05 05:55:00
10:15 PM,37.4,33.8,87,30.20,10.0,SSE,4.6,-,N/A,,Mostly Cloudy,150,2013-01-05 06:15:00
10:35 PM,37.4,33.8,87,30.21,10.0,SE,6.9,-,N/A,,Overcast,140,2013-01-05 06:35:00
10:55 PM,37.4,32.0,81,30.21,10.0,SSE,4.6,-,N/A,,Overcast,150,2013-01-05 06:55:00
11:15 PM,37.4,30.2,75,30.21,10.0,South,8.1,-,N/A,,Overcast,180,2013-01-05 07:15:00
11:35 PM,37.4,30.2,75,30.20,10.0,SE,6.9,-,N/A,,Overcast,140,2013-01-05 07:35:00
11:55 PM,37.4,28.4,70,30.20,10.0,SE,8.1,-,N/A,,Overcast,140,2013-01-05 07:55:00